This is the latest recevied weather packets stored in our database for station/object N4JTC. If no packets are shown the sender has not sent any weather packets the latest 10 day(s).
| Time | Temp. | Humidity | Pressure | Rain* | Wind** | Luminosity | Snow |
|---|---|---|---|---|---|---|---|
| 1777723803 | 14.44° C | 95% | 1011.4 hPa | 1.78 mm | - | 13 W/m² | - |
| 1777723502 | 14.44° C | 95% | 1011.4 hPa | 0 mm | - | 13 W/m² | - |
| 1777722903 | 15° C | 95% | 1012.4 hPa | 1.27 mm | - | 8 W/m² | - |
| 1777722302 | 15° C | 96% | 1012.5 hPa | 0 mm | - | 2 W/m² | - |
| 1777722003 | 15° C | 95% | 1011.5 hPa | 0 mm | - | 3 W/m² | - |
| 1777721703 | 15° C | 95% | 1011.1 hPa | 0 mm | - | 13 W/m² | - |
| 1777721403 | 15° C | 96% | 1011.3 hPa | 0 mm | - | 6 W/m² | - |
| 1777721103 | 15° C | 96% | 1011.1 hPa | 1.78 mm | - | 6 W/m² | - |
| 1777720804 | 15° C | 96% | 1011.7 hPa | 3.05 mm | - | 1 W/m² | - |
| 1777720502 | 15° C | 96% | 1011.2 hPa | 1.27 mm | - | 2 W/m² | - |
| 1777719903 | 15° C | 97% | 1011.5 hPa | 0 mm | - | 0 W/m² | - |
| 1777719603 | 15° C | 98% | 1011 hPa | 1.78 mm | - | 0 W/m² | - |
| 1777719303 | 15° C | 98% | 1010.7 hPa | 1.78 mm | - | 0 W/m² | - |
| 1777719002 | 15° C | 98% | 1010.3 hPa | 1.78 mm | - | 0 W/m² | - |
| 1777718703 | 15° C | 98% | 1010.7 hPa | 0 mm | - | 0 W/m² | - |
| 1777718403 | 15° C | 98% | 1010.6 hPa | 0 mm | - | 0 W/m² | - |
| 1777718103 | 15° C | 99% | 1010.7 hPa | 1.78 mm | - | 0 W/m² | - |
| 1777717803 | 15° C | 99% | 1010.3 hPa | 7.87 mm | - | 0 W/m² | - |
| 1777717502 | 15° C | 99% | 1010 hPa | 34.8 mm | - | 0 W/m² | - |
| 1777717203 | 15° C | 99% | 1010.9 hPa | 40.89 mm | - | 0 W/m² | - |
| 1777716903 | 14.44° C | 99% | 1011.1 hPa | 21.08 mm | - | 0 W/m² | - |
| 1777716603 | 14.44° C | 99% | 1010.4 hPa | 16.76 mm | - | 0 W/m² | - |
| 1777716304 | 14.44° C | 99% | 1009.2 hPa | 8.89 mm | - | 0 W/m² | - |
| 1777716003 | 14.44° C | 99% | 1009.2 hPa | 6.1 mm | - | 0 W/m² | - |
| 1777715703 | 14.44° C | 99% | 1009.6 hPa | 12.7 mm | - | 0 W/m² | - |
* Rain latest hour (hover to see other rain measurements)
** Current wind speed in m/s (hover to see current wind gust speed)